EW2941 Weather Reports


time (UTC)temp
C
wind
direction
speed
KPH
gust
KPH
rain 1hr
cm
rain 24hr
cm
rain mn
cm
humidity
%
barometer
mb
20260510120052 15 331 0.0 0.0 0.00 0.00 0.00 89 1011.9
20260510114531 13 331 0.0 0.0 0.00 0.00 0.00 94 1011.5
20260510113012 12 331 0.0 0.0 0.00 0.00 0.00 96 1011.5
20260510111540 12 331 0.0 0.0 0.00 0.00 0.00 96 1011.4
20260510110023 11 332 0.0 0.0 0.00 0.00 0.00 96 1011.2
20260510104601 11 331 0.0 0.0 0.00 0.00 0.00 96 1011.0
20260510103042 10 331 0.0 0.0 0.00 0.00 0.00 95 1010.9
20260510101514 10 331 0.0 0.0 0.00 0.00 0.00 95 1010.6
20260510100110 11 331 0.0 0.0 0.00 0.00 0.00 95 1010.4
20260510094550 11 331 0.0 0.0 0.00 0.00 0.00 95 1010.4
20260510093017 11 331 0.0 0.0 0.00 0.00 0.00 94 1010.2
20260510091549 11 331 0.0 0.0 0.00 0.00 0.00 94 1010.1
20260510090040 12 331 0.0 0.0 0.00 0.00 0.00 94 1010.0
20260510084511 12 332 0.0 0.0 0.00 0.00 0.00 94 1010.0
20260510083056 12 331 0.0 0.0 0.00 0.00 0.00 95 1009.9
20260510081521 12 331 0.0 0.0 0.00 0.00 0.00 94 1009.8
20260510080110 12 331 0.0 0.0 0.00 0.00 0.00 93 1009.8
20260510074535 12 331 0.0 0.0 0.00 0.00 0.00 93 1009.6
20260510073013 12 331 0.0 0.0 0.00 0.00 0.00 93 1009.4
20260510071546 12 331 0.0 0.0 0.00 0.00 0.00 92 1009.3
20260510070034 13 331 0.0 0.0 0.00 0.00 0.00 92 1009.2
20260510064509 13 332 0.0 0.0 0.00 0.00 0.00 91 1009.2
20260510063051 13 331 0.0 0.0 0.00 0.00 0.00 91 1009.2
20260510061521 13 331 0.0 0.0 0.00 0.00 0.00 90 1009.2
20260510060002 14 331 0.0 0.0 0.00 0.00 0.00 90 1009.1
20260510054544 14 331 0.0 0.0 0.00 0.00 0.00 90 1009.1
20260510053027 14 331 0.0 0.0 0.00 0.00 0.00 89 1009.2
20260510051600 14 331 0.0 0.0 0.00 0.00 0.00 88 1009.0
20260510050042 15 331 0.0 0.0 0.00 0.00 0.00 87 1009.0
20260510044527 15 331 0.0 0.0 0.00 0.00 0.00 86 1009.1
20260510043110 15 331 0.0 0.0 0.00 0.00 0.00 86 1009.1
20260510041528 15 331 0.0 0.0 0.00 0.00 0.00 86 1009.0
20260510040011 15 331 0.0 0.0 0.00 0.00 0.00 85 1009.0
20260510034558 15 331 0.0 0.0 0.00 0.00 0.00 84 1008.9
20260510033043 15 332 0.0 0.0 0.00 0.00 0.00 84 1008.8
20260510031512 15 332 0.0 0.0 0.00 0.00 0.00 84 1008.6
20260510030100 15 332 0.0 0.0 0.00 0.00 0.00 83 1008.6
20260510024539 15 331 0.0 0.0 0.00 0.00 0.00 82 1008.4
20260510023018 15 331 0.0 0.0 0.00 0.00 0.00 81 1008.3
20260510021550 15 331 0.0 0.0 0.00 0.00 0.00 81 1008.3
20260510020036 16 331 0.0 0.0 0.00 0.00 0.00 80 1008.0
20260510014513 16 331 0.0 0.0 0.00 0.00 0.00 79 1007.9
20260510013057 16 332 0.0 0.0 0.00 0.00 0.00 78 1007.7
20260510011537 16 331 0.0 0.0 0.00 0.00 0.00 77 1007.5
20260510010007 17 331 0.0 0.0 0.00 0.00 0.00 75 1007.3
20260510004550 17 331 0.0 0.0 0.00 0.00 0.00 74 1007.2
20260510003032 18 331 0.0 0.0 0.00 0.00 0.00 72 1007.1
20260510001504 19 331 0.0 0.0 0.00 0.00 0.00 69 1006.9
20260509234544 20 331 0.0 0.0 0.00 0.00 0.00 66 1006.6
20260509233013 21 332 0.0 1.6 0.00 0.00 0.00 64 1006.5
20260509231545 21 331 0.0 0.0 0.00 0.00 0.00 63 1006.6
20260509230023 21 331 0.0 1.6 0.00 0.00 0.00 61 1006.6
20260509224505 22 331 0.0 1.6 0.00 0.00 0.00 61 1006.5
20260509223059 22 331 0.0 1.6 0.00 0.00 0.00 60 1006.5
20260509221521 22 332 0.0 1.6 0.00 0.00 0.00 58 1006.5
20260509220004 22 331 0.0 3.2 0.00 0.00 0.00 58 1006.5
20260509214548 23 155 0.0 1.6 0.00 0.00 0.00 62 1006.6
20260509213030 23 3 0.0 1.6 0.00 0.00 0.00 58 1006.6
20260509211501 23 25 0.0 6.4 0.00 0.00 0.00 58 1006.4
20260509210059 22 341 0.0 3.2 0.00 0.00 0.00 60 1006.3
20260509204539 22 320 0.0 3.2 0.00 0.00 0.00 59 1006.3
20260509203014 23 2 1.6 4.8 0.00 0.00 0.00 59 1006.3
20260509201546 23 336 0.0 6.4 0.00 0.00 0.00 60 1006.4
20260509200020 23 330 0.0 6.4 0.00 0.00 0.00 62 1006.6
20260509194503 22 335 0.0 3.2 0.00 0.00 0.00 66 1006.8
20260509193046 22 335 0.0 4.8 0.00 0.00 0.00 65 1007.0
20260509191521 21 234 0.0 3.2 0.00 0.00 0.00 68 1007.3
20260509190058 20 246 0.0 0.0 0.00 0.00 0.00 71 1007.7
20260509184553 21 246 0.0 1.6 0.00 0.00 0.00 67 1007.9
20260509183017 21 315 0.0 3.2 0.00 0.00 0.00 69 1008.0
20260509181605 20 255 0.0 1.6 0.00 0.00 0.00 68 1008.2
20260509180029 21 340 0.0 1.6 0.00 0.00 0.00 66 1008.2
20260509174509 21 291 1.6 8.0 0.00 0.00 0.00 65 1008.3
20260509173102 21 262 0.0 1.6 0.00 0.00 0.00 66 1008.4
20260509171518 21 265 0.0 4.8 0.00 0.00 0.00 66 1008.5
20260509170058 21 332 0.0 3.2 0.00 0.00 0.00 70 1008.8
20260509164534 20 224 0.0 1.6 0.00 0.00 0.00 68 1009.0
20260509163016 21 260 0.0 4.8 0.00 0.00 0.00 66 1008.9
20260509161545 21 278 0.0 6.4 0.00 0.00 0.00 65 1009.0
20260509160032 22 349 0.0 8.0 0.00 0.00 0.00 63 1009.0
20260509154508 22 275 1.6 12.9 0.00 0.00 0.00 62 1009.3
20260509153047 22 243 0.0 3.2 0.00 0.00 0.00 65 1009.4
20260509151510 20 18 0.0 4.8 0.00 0.00 0.00 70 1009.6
20260509150048 20 16 0.0 3.2 0.00 0.00 0.00 68 1009.3
20260509144532 19 345 0.0 1.6 0.00 0.00 0.00 71 1009.8
20260509143005 18 235 0.0 3.2 0.00 0.00 0.00 72 1010.1
20260509141533 17 324 0.0 1.6 0.00 0.00 0.00 74 1010.1
20260509140011 17 245 0.0 1.6 0.00 0.00 0.00 74 1010.3
20260509134608 17 290 0.0 6.4 0.00 0.00 0.00 76 1010.5
20260509133037 16 103 0.0 1.6 0.00 0.00 0.00 77 1010.7
20260509131602 16 236 0.0 4.8 0.00 0.00 0.00 77 1010.6
20260509130052 15 215 0.0 0.0 0.00 0.00 0.00 77 1010.7
20260509124516 15 166 0.0 0.0 0.00 0.00 0.00 80 1010.7
20260509123130 14 165 0.0 0.0 0.00 0.00 0.00 81 1010.9
20260509121541 13 160 0.0 0.0 0.00 0.00 0.00 82 1010.7